WAT542 LQBK-EDDS

Flight info

Callsign WAT542
Flight time N/A
Altitude 36000
Route TEBLI DCT TEKSI TEKSI1W
Aircraft A321/M-SDE3FGHIRWY/LB1

Departure

Time 2026-04-24 16:42
Airport Banja Luka International Airport (LQBK)

Arrival

Time N/A
Airport Stuttgart Airport (EDDS)
Time Latitude Longitude Altitude Speed Heading
2026-04-24 16:21 44.93366 17.30254 407 ft 0 kts 261°
2026-04-24 16:39 44.93365 17.30249 406 ft 2 kts 261°
2026-04-24 16:40 44.93353 17.30218 405 ft 5 kts 216°
2026-04-24 16:40 44.93306 17.30218 407 ft 8 kts 171°
2026-04-24 16:40 44.93238 17.30228 408 ft 11 kts 187°
2026-04-24 16:40 44.93162 17.30171 407 ft 14 kts 213°
2026-04-24 16:41 44.93089 17.30100 409 ft 11 kts 218°
2026-04-24 16:41 44.93071 17.30039 411 ft 5 kts 304°
2026-04-24 16:41 44.93099 17.30022 411 ft 4 kts 346°
2026-04-24 16:41 44.93209 17.29991 410 ft 44 kts 349°
2026-04-24 16:42 44.93747 17.29852 400 ft 110 kts 349°
2026-04-24 16:42 44.94673 17.29615 393 ft 158 kts 350°
2026-04-24 16:42 44.95795 17.29330 859 ft 164 kts 349°
2026-04-24 16:42 44.96906 17.29048 1564 ft 161 kts 348°
2026-04-24 16:43 44.98010 17.28765 2221 ft 163 kts 347°
2026-04-24 16:43 44.99191 17.28445 2466 ft 183 kts 347°
2026-04-24 16:43 45.00525 17.28085 2613 ft 206 kts 348°
2026-04-24 16:43 45.02011 17.27638 2812 ft 229 kts 341°
2026-04-24 16:44 45.03329 17.26259 3227 ft 248 kts 307°
2026-04-24 16:44 45.04176 17.24106 4073 ft 253 kts 296°
2026-04-24 16:44 45.04842 17.21784 4966 ft 256 kts 294°
2026-04-24 16:44 45.05482 17.19415 5810 ft 260 kts 295°
2026-04-24 16:45 45.06156 17.17025 6660 ft 263 kts 297°
2026-04-24 16:45 45.06878 17.14626 7452 ft 267 kts 298°
2026-04-24 16:45 45.07640 17.12219 8238 ft 270 kts 299°
2026-04-24 16:45 45.08416 17.09769 9013 ft 275 kts 298°
2026-04-24 16:46 45.09147 17.07240 9791 ft 280 kts 296°
2026-04-24 16:46 45.09868 17.04640 10344 ft 292 kts 296°
2026-04-24 16:46 45.10633 17.01864 10533 ft 315 kts 296°
2026-04-24 16:46 45.11455 16.98885 10851 ft 331 kts 296°
2026-04-24 16:47 45.12302 16.95819 11470 ft 337 kts 295°
2026-04-24 16:47 45.13167 16.92699 12135 ft 342 kts 295°
2026-04-24 16:47 45.14046 16.89542 12812 ft 347 kts 295°
2026-04-24 16:47 45.14939 16.86338 13483 ft 352 kts 295°
2026-04-24 16:48 45.15845 16.83090 14105 ft 357 kts 295°
2026-04-24 16:48 45.16762 16.79797 14707 ft 361 kts 295°
2026-04-24 16:48 45.17687 16.76469 15325 ft 365 kts 295°
2026-04-24 16:48 45.18620 16.73108 15940 ft 368 kts 295°
2026-04-24 16:49 45.19579 16.69721 16543 ft 371 kts 298°
2026-04-24 16:49 45.20847 16.66537 17133 ft 371 kts 309°
2026-04-24 16:49 45.22463 16.63689 17718 ft 372 kts 314°
2026-04-24 16:49 45.24145 16.60872 18303 ft 376 kts 313°
2026-04-24 16:50 45.25266 16.58985 18647 ft 378 kts 313°
2026-04-24 16:50 45.27546 16.55136 19371 ft 382 kts 313°
2026-04-24 16:50 45.29254 16.52244 19905 ft 384 kts 313°
2026-04-24 16:50 45.30975 16.49326 20442 ft 386 kts 313°
2026-04-24 16:51 45.32704 16.46389 20972 ft 388 kts 313°
2026-04-24 16:51 45.34439 16.43436 21494 ft 390 kts 313°
2026-04-24 16:51 45.36182 16.40468 22017 ft 393 kts 313°
2026-04-24 16:51 45.37939 16.37479 22529 ft 395 kts 313°
2026-04-24 16:52 45.39704 16.34470 23052 ft 397 kts 313°
2026-04-24 16:52 45.41478 16.31443 23550 ft 399 kts 313°
2026-04-24 16:52 45.43264 16.28396 23966 ft 401 kts 313°
2026-04-24 16:52 45.45058 16.25329 24359 ft 404 kts 313°
2026-04-24 16:53 45.46857 16.22245 24746 ft 406 kts 313°
2026-04-24 16:53 45.48667 16.19137 25138 ft 409 kts 313°
2026-04-24 16:53 45.50491 16.16004 25522 ft 412 kts 313°
2026-04-24 16:53 45.52304 16.12890 25899 ft 414 kts 313°
2026-04-24 16:54 45.54149 16.09717 26280 ft 417 kts 313°
2026-04-24 16:54 45.56003 16.06525 26663 ft 419 kts 313°
2026-04-24 16:54 45.57873 16.03306 27048 ft 422 kts 313°
2026-04-24 16:54 45.59752 16.00071 27386 ft 424 kts 313°
2026-04-24 16:55 45.61640 15.96815 27748 ft 427 kts 313°
2026-04-24 16:55 45.62896 15.94644 27977 ft 428 kts 313°
2026-04-24 16:55 45.64802 15.91346 28341 ft 431 kts 313°
2026-04-24 16:55 45.66712 15.88036 28700 ft 433 kts 312°
2026-04-24 16:56 45.68636 15.84696 29051 ft 435 kts 313°
2026-04-24 16:56 45.70568 15.81341 29386 ft 438 kts 313°
2026-04-24 16:56 45.72509 15.77969 29719 ft 440 kts 313°
2026-04-24 16:56 45.74458 15.74579 30027 ft 442 kts 313°
2026-04-24 16:57 45.76418 15.71165 30289 ft 444 kts 313°
2026-04-24 16:57 45.78382 15.67737 30565 ft 446 kts 313°
2026-04-24 16:57 45.80355 15.64286 30836 ft 448 kts 313°
2026-04-24 16:57 45.82332 15.60816 31128 ft 450 kts 313°
2026-04-24 16:58 45.84307 15.57349 31528 ft 449 kts 313°
2026-04-24 16:58 45.86280 15.53882 31933 ft 448 kts 313°
2026-04-24 16:58 45.88249 15.50427 32320 ft 447 kts 313°
2026-04-24 16:58 45.90219 15.46968 32711 ft 447 kts 313°
2026-04-24 16:59 45.92181 15.43519 33094 ft 446 kts 313°
2026-04-24 16:59 45.94143 15.40065 33467 ft 446 kts 313°
2026-04-24 16:59 45.98053 15.33156 34160 ft 445 kts 313°
2026-04-24 17:00 46.00002 15.29696 34487 ft 445 kts 313°
2026-04-24 17:00 46.03895 15.22784 35149 ft 443 kts 313°
2026-04-24 17:00 46.05833 15.19341 35468 ft 442 kts 313°
2026-04-24 17:01 46.09698 15.12475 35972 ft 441 kts 313°
2026-04-24 17:01 46.11622 15.09050 36009 ft 437 kts 313°
2026-04-24 17:02 46.17324 14.98866 36003 ft 434 kts 313°
2026-04-24 17:02 46.21110 14.92081 36003 ft 434 kts 313°
2026-04-24 17:03 46.26779 14.81877 36002 ft 434 kts 313°
2026-04-24 17:04 46.30564 14.75055 35993 ft 434 kts 313°
2026-04-24 17:04 46.36192 14.64884 35996 ft 434 kts 313°
2026-04-24 17:05 46.39966 14.58042 35996 ft 435 kts 313°
2026-04-24 17:06 46.45614 14.47771 35993 ft 434 kts 313°
2026-04-24 17:06 46.49376 14.40905 35593 ft 435 kts 313°
2026-04-24 17:06 46.51258 14.37462 35344 ft 436 kts 313°
2026-04-24 17:07 46.52504 14.35180 35174 ft 436 kts 313°
2026-04-24 17:07 46.55032 14.30542 34840 ft 438 kts 313°
2026-04-24 17:07 46.58819 14.23561 34368 ft 441 kts 313°
2026-04-24 17:08 46.62638 14.16533 33958 ft 443 kts 313°
2026-04-24 17:08 46.66469 14.09465 34001 ft 445 kts 313°
2026-04-24 17:09 46.74111 13.95297 34014 ft 446 kts 313°
2026-04-24 17:10 46.81764 13.81059 34027 ft 446 kts 313°
2026-04-24 17:12 46.96989 13.52459 34054 ft 445 kts 314°